Wetterdaten: Montag, 09.01.2012
Datum Zeit Temp. A. Temp. A. min Temp. A. max Feuchte A. Luftdruck Regen Wind Richtung Richtung Sonnenschein ET Solar Taupunkt Windchill Windben Empfang
09.01.2012 00:00 3,2 C 0,0 C 0,0 C 87 % 1024,5 hPa 0,0 l/m 0,0 km/h (0 Bft) W 270 0 min 0,000 mm 0 W/m 1,2 C 3,2 C 0,0 km/h (0 Bft) 0,00 %
09.01.2012 00:05 3,2 C 0,0 C 0,0 C 87 % 1024,5 hPa 0,0 l/m 3,6 km/h (1 Bft) N-NW 330 0 min 0,000 mm 0 W/m 1,2 C 3,2 C 3,6 km/h (1 Bft) 0,00 %
09.01.2012 00:10 3,1 C 0,0 C 0,0 C 87 % 1024,5 hPa 0,0 l/m 3,0 km/h (1 Bft) W-NW 295 0 min 0,000 mm 0 W/m 1,2 C 3,1 C 3,0 km/h (1 Bft) 0,00 %
09.01.2012 00:15 3,1 C 0,0 C 0,0 C 87 % 1024,5 hPa 0,0 l/m 3,6 km/h (1 Bft) N-NW 330 0 min 0,000 mm 0 W/m 1,2 C 3,1 C 3,6 km/h (1 Bft) 0,00 %
09.01.2012 00:20 3,1 C 0,0 C 0,0 C 87 % 1024,5 hPa 0,0 l/m 3,6 km/h (1 Bft) W 280 0 min 0,000 mm 0 W/m 1,2 C 3,1 C 3,6 km/h (1 Bft) 0,00 %
09.01.2012 00:25 3,1 C 0,0 C 0,0 C 87 % 1024,5 hPa 0,3 l/m 4,8 km/h (1 Bft) NW 315 0 min 0,000 mm 0 W/m 1,2 C 2,0 C 4,8 km/h (1 Bft) 0,00 %
09.01.2012 00:30 3,1 C 0,0 C 0,0 C 87 % 1024,5 hPa 0,0 l/m 0,0 km/h (0 Bft) W-NW 295 0 min 0,000 mm 0 W/m 1,2 C 3,1 C 0,0 km/h (0 Bft) 0,00 %
09.01.2012 00:35 3,2 C 0,0 C 0,0 C 87 % 1024,5 hPa 0,0 l/m 5,4 km/h (1 Bft) W-NW 300 0 min 0,000 mm 0 W/m 1,2 C 1,9 C 5,4 km/h (1 Bft) 0,00 %
09.01.2012 00:40 3,1 C 0,0 C 0,0 C 87 % 1024,5 hPa 0,0 l/m 6,1 km/h (2 Bft) NW 315 0 min 0,000 mm 0 W/m 1,2 C 1,5 C 6,1 km/h (2 Bft) 0,00 %
09.01.2012 00:45 3,1 C 0,0 C 0,0 C 87 % 1024,5 hPa 0,0 l/m 8,2 km/h (2 Bft) SW 230 0 min 0,000 mm 0 W/m 1,2 C 0,8 C 8,2 km/h (2 Bft) 0,00 %
09.01.2012 00:50 3,1 C 0,0 C 0,0 C 86 % 1024,5 hPa 0,0 l/m 6,7 km/h (2 Bft) NW 320 0 min 0,000 mm 0 W/m 1,0 C 1,3 C 6,7 km/h (2 Bft) 0,00 %
09.01.2012 00:55 3,0 C 0,0 C 0,0 C 86 % 1024,5 hPa 0,0 l/m 4,8 km/h (1 Bft) NW 325 0 min 0,000 mm 0 W/m 0,9 C 1,9 C 4,8 km/h (1 Bft) 0,00 %
09.01.2012 01:00 3,0 C 0,0 C 0,0 C 86 % 1024,5 hPa 0,0 l/m 7,6 km/h (2 Bft) W 275 0 min 0,000 mm 0 W/m 0,9 C 0,9 C 7,6 km/h (2 Bft) 0,00 %
09.01.2012 01:05 2,9 C 0,0 C 0,0 C 86 % 1024,5 hPa 0,0 l/m 5,7 km/h (1 Bft) N-NO 15 0 min 0,000 mm 0 W/m 0,8 C 1,4 C 5,7 km/h (1 Bft) 0,00 %
09.01.2012 01:10 2,9 C 0,0 C 0,0 C 86 % 1024,5 hPa 0,0 l/m 6,7 km/h (2 Bft) SW 220 0 min 0,000 mm 0 W/m 0,8 C 1,1 C 6,7 km/h (2 Bft) 0,00 %
09.01.2012 01:15 2,9 C 0,0 C 0,0 C 86 % 1024,5 hPa 0,0 l/m 5,4 km/h (1 Bft) N-NW 345 0 min 0,000 mm 0 W/m 0,8 C 1,5 C 5,4 km/h (1 Bft) 0,00 %
09.01.2012 01:20 2,9 C 0,0 C 0,0 C 86 % 1024,5 hPa 0,0 l/m 4,8 km/h (1 Bft) W 260 0 min 0,000 mm 0 W/m 0,8 C 1,8 C 4,8 km/h (1 Bft) 0,00 %
09.01.2012 01:25 3,0 C 0,0 C 0,0 C 86 % 1024,5 hPa 0,0 l/m 5,4 km/h (1 Bft) W 270 0 min 0,000 mm 0 W/m 0,9 C 1,7 C 5,4 km/h (1 Bft) 0,00 %
09.01.2012 01:30 2,9 C 0,0 C 0,0 C 86 % 1024,5 hPa 0,0 l/m 1,5 km/h (1 Bft) W 275 0 min 0,000 mm 0 W/m 0,8 C 2,9 C 1,5 km/h (1 Bft) 0,00 %
09.01.2012 01:35 2,9 C 0,0 C 0,0 C 86 % 1024,5 hPa 0,0 l/m 2,1 km/h (1 Bft) W-NW 290 0 min 0,000 mm 0 W/m 0,8 C 2,9 C 2,1 km/h (1 Bft) 0,00 %
09.01.2012 01:40 2,9 C 0,0 C 0,0 C 86 % 1024,5 hPa 0,0 l/m 0,9 km/h (0 Bft) W 275 0 min 0,000 mm 0 W/m 0,8 C 2,9 C 0,9 km/h (0 Bft) 0,00 %
09.01.2012 01:45 2,9 C 0,0 C 0,0 C 86 % 1024,5 hPa 0,0 l/m 0,0 km/h (0 Bft) W 265 0 min 0,000 mm 0 W/m 0,8 C 2,9 C 0,0 km/h (0 Bft) 0,00 %
09.01.2012 01:50 2,8 C 0,0 C 0,0 C 86 % 1024,5 hPa 0,0 l/m 3,0 km/h (1 Bft) S-SW 200 0 min 0,000 mm 0 W/m 0,7 C 2,8 C 3,0 km/h (1 Bft) 0,00 %
09.01.2012 01:55 2,7 C 0,0 C 0,0 C 86 % 1025,5 hPa 0,0 l/m 0,0 km/h (0 Bft) W-NW 290 0 min 0,000 mm 0 W/m 0,6 C 2,7 C 0,0 km/h (0 Bft) 0,00 %
09.01.2012 02:00 2,6 C 0,0 C 0,0 C 87 % 1025,5 hPa 0,0 l/m 0,0 km/h (0 Bft) S-SW 210 0 min 0,000 mm 0 W/m 0,7 C 2,6 C 0,0 km/h (0 Bft) 0,00 %
09.01.2012 02:05 2,6 C 0,0 C 0,0 C 87 % 1025,5 hPa 0,0 l/m 0,0 km/h (0 Bft) W-NW 285 0 min 0,000 mm 0 W/m 0,7 C 2,6 C 0,0 km/h (0 Bft) 0,00 %
09.01.2012 02:10 2,6 C 0,0 C 0,0 C 87 % 1025,5 hPa 0,0 l/m 0,0 km/h (0 Bft) W 265 0 min 0,000 mm 0 W/m 0,7 C 2,6 C 0,0 km/h (0 Bft) 0,00 %
09.01.2012 02:15 2,6 C 0,0 C 0,0 C 87 % 1025,5 hPa 0,0 l/m 0,0 km/h (0 Bft) W-NW 290 0 min 0,000 mm 0 W/m 0,7 C 2,6 C 0,0 km/h (0 Bft) 0,00 %
09.01.2012 02:20 2,5 C 0,0 C 0,0 C 87 % 1025,5 hPa 0,0 l/m 0,0 km/h (0 Bft) SW 225 0 min 0,000 mm 0 W/m 0,6 C 2,5 C 0,0 km/h (0 Bft) 0,00 %
09.01.2012 02:25 2,4 C 0,0 C 0,0 C 87 % 1025,5 hPa 0,0 l/m 0,0 km/h (0 Bft) W 260 0 min 0,000 mm 0 W/m 0,5 C 2,4 C 0,0 km/h (0 Bft) 0,00 %
09.01.2012 02:30 2,6 C 0,0 C 0,0 C 87 % 1025,5 hPa 0,0 l/m 3,9 km/h (1 Bft) NW 315 0 min 0,000 mm 0 W/m 0,7 C 2,6 C 3,9 km/h (1 Bft) 0,00 %
09.01.2012 02:35 2,8 C 0,0 C 0,0 C 87 % 1025,5 hPa 0,0 l/m 7,6 km/h (2 Bft) W-SW 250 0 min 0,000 mm 0 W/m 0,9 C 0,7 C 7,6 km/h (2 Bft) 0,00 %
09.01.2012 02:40 2,9 C 0,0 C 0,0 C 87 % 1025,5 hPa 0,0 l/m 9,7 km/h (2 Bft) W-NW 285 0 min 0,000 mm 0 W/m 1,0 C 0,2 C 9,7 km/h (2 Bft) 0,00 %
09.01.2012 02:45 3,1 C 0,0 C 0,0 C 87 % 1025,5 hPa 0,0 l/m 10,9 km/h (2 Bft) W-NW 300 0 min 0,000 mm 0 W/m 1,2 C 0,2 C 10,9 km/h (2 Bft) 0,00 %
09.01.2012 02:50 3,1 C 0,0 C 0,0 C 86 % 1025,5 hPa 0,0 l/m 8,5 km/h (2 Bft) N-NW 330 0 min 0,000 mm 0 W/m 1,0 C 0,8 C 8,5 km/h (2 Bft) 0,00 %
09.01.2012 02:55 3,0 C 0,0 C 0,0 C 86 % 1025,5 hPa 0,0 l/m 3,3 km/h (1 Bft) W-NW 290 0 min 0,000 mm 0 W/m 0,9 C 3,0 C 3,3 km/h (1 Bft) 0,00 %
09.01.2012 03:00 3,1 C 0,0 C 0,0 C 86 % 1025,5 hPa 0,0 l/m 4,5 km/h (1 Bft) W 275 0 min 0,000 mm 0 W/m 1,0 C 3,1 C 4,5 km/h (1 Bft) 0,00 %
09.01.2012 03:05 3,0 C 0,0 C 0,0 C 86 % 1025,5 hPa 0,0 l/m 2,4 km/h (1 Bft) N 10 0 min 0,000 mm 0 W/m 0,9 C 3,0 C 2,4 km/h (1 Bft) 0,00 %
09.01.2012 03:10 3,1 C 0,0 C 0,0 C 86 % 1025,5 hPa 0,0 l/m 3,3 km/h (1 Bft) W-NW 295 0 min 0,000 mm 0 W/m 1,0 C 3,1 C 3,3 km/h (1 Bft) 0,00 %
09.01.2012 03:15 3,1 C 0,0 C 0,0 C 86 % 1025,5 hPa 0,0 l/m 2,7 km/h (1 Bft) NW 310 0 min 0,000 mm 0 W/m 1,0 C 3,1 C 2,7 km/h (1 Bft) 0,00 %
09.01.2012 03:20 3,1 C 0,0 C 0,0 C 86 % 1025,5 hPa 0,0 l/m 6,4 km/h (2 Bft) W 275 0 min 0,000 mm 0 W/m 1,0 C 1,4 C 6,4 km/h (2 Bft) 0,00 %
09.01.2012 03:25 3,1 C 0,0 C 0,0 C 86 % 1025,5 hPa 0,0 l/m 7,6 km/h (2 Bft) N 355 0 min 0,000 mm 0 W/m 1,0 C 1,0 C 7,6 km/h (2 Bft) 0,00 %
09.01.2012 03:30 3,1 C 0,0 C 0,0 C 86 % 1025,5 hPa 0,0 l/m 7,0 km/h (2 Bft) W 260 0 min 0,000 mm 0 W/m 1,0 C 1,2 C 7,0 km/h (2 Bft) 0,00 %
09.01.2012 03:35 3,1 C 0,0 C 0,0 C 86 % 1025,5 hPa 0,0 l/m 6,1 km/h (2 Bft) W-NW 285 0 min 0,000 mm 0 W/m 1,0 C 1,5 C 6,1 km/h (2 Bft) 0,00 %
09.01.2012 03:40 3,1 C 0,0 C 0,0 C 86 % 1025,5 hPa 0,0 l/m 0,0 km/h (0 Bft) W 280 0 min 0,000 mm 0 W/m 1,0 C 3,1 C 0,0 km/h (0 Bft) 0,00 %
09.01.2012 03:45 3,1 C 0,0 C 0,0 C 86 % 1025,5 hPa 0,0 l/m 0,0 km/h (0 Bft) W-NW 290 0 min 0,000 mm 0 W/m 1,0 C 3,1 C 0,0 km/h (0 Bft) 0,00 %
09.01.2012 03:50 3,1 C 0,0 C 0,0 C 86 % 1025,5 hPa 0,0 l/m 2,4 km/h (1 Bft) W 270 0 min 0,000 mm 0 W/m 1,0 C 3,1 C 2,4 km/h (1 Bft) 0,00 %
09.01.2012 03:55 3,0 C 0,0 C 0,0 C 86 % 1025,5 hPa 0,0 l/m 0,0 km/h (0 Bft) O-NO 70 0 min 0,000 mm 0 W/m 0,9 C 3,0 C 0,0 km/h (0 Bft) 0,00 %
09.01.2012 04:00 3,0 C 0,0 C 0,0 C 86 % 1025,5 hPa 0,0 l/m 0,6 km/h (0 Bft) SW 215 0 min 0,000 mm 0 W/m 0,9 C 3,0 C 0,6 km/h (0 Bft) 0,00 %
09.01.2012 04:05 2,9 C 0,0 C 0,0 C 86 % 1025,5 hPa 0,0 l/m 0,0 km/h (0 Bft) O-SO 120 0 min 0,000 mm 0 W/m 0,8 C 2,9 C 0,0 km/h (0 Bft) 0,00 %
09.01.2012 04:10 2,9 C 0,0 C 0,0 C 86 % 1025,5 hPa 0,0 l/m 0,0 km/h (0 Bft) S-SW 210 0 min 0,000 mm 0 W/m 0,8 C 2,9 C 0,0 km/h (0 Bft) 0,00 %
09.01.2012 04:15 2,8 C 0,0 C 0,0 C 86 % 1025,5 hPa 0,0 l/m 0,9 km/h (0 Bft) S 180 0 min 0,000 mm 0 W/m 0,7 C 2,8 C 0,9 km/h (0 Bft) 0,00 %
09.01.2012 04:20 2,8 C 0,0 C 0,0 C 86 % 1025,5 hPa 0,0 l/m 0,0 km/h (0 Bft) SW 215 0 min 0,000 mm 0 W/m 0,7 C 2,8 C 0,0 km/h (0 Bft) 0,00 %
09.01.2012 04:25 2,7 C 0,0 C 0,0 C 86 % 1025,5 hPa 0,0 l/m 0,0 km/h (0 Bft) S-SO 160 0 min 0,000 mm 0 W/m 0,6 C 2,7 C 0,0 km/h (0 Bft) 0,00 %
09.01.2012 04:30 2,6 C 0,0 C 0,0 C 87 % 1025,5 hPa 0,0 l/m 0,0 km/h (0 Bft) S 175 0 min 0,000 mm 0 W/m 0,7 C 2,6 C 0,0 km/h (0 Bft) 0,00 %
09.01.2012 04:35 2,5 C 0,0 C 0,0 C 87 % 1025,5 hPa 0,0 l/m 0,0 km/h (0 Bft) S 190 0 min 0,000 mm 0 W/m 0,6 C 2,5 C 0,0 km/h (0 Bft) 0,00 %
09.01.2012 04:40 2,4 C 0,0 C 0,0 C 87 % 1025,5 hPa 0,0 l/m 0,0 km/h (0 Bft) SW 225 0 min 0,000 mm 0 W/m 0,5 C 2,4 C 0,0 km/h (0 Bft) 0,00 %
09.01.2012 04:45 2,4 C 0,0 C 0,0 C 87 % 1025,5 hPa 0,0 l/m 0,0 km/h (0 Bft) S-SO 165 0 min 0,000 mm 0 W/m 0,5 C 2,4 C 0,0 km/h (0 Bft) 0,00 %
09.01.2012 04:50 2,4 C 0,0 C 0,0 C 87 % 1025,5 hPa 0,0 l/m 0,0 km/h (0 Bft) S 180 0 min 0,000 mm 0 W/m 0,5 C 2,4 C 0,0 km/h (0 Bft) 0,00 %
09.01.2012 04:55 2,3 C 0,0 C 0,0 C 88 % 1025,5 hPa 0,0 l/m 0,0 km/h (0 Bft) S 185 0 min 0,000 mm 0 W/m 0,5 C 2,3 C 0,0 km/h (0 Bft) 0,00 %
09.01.2012 05:00 2,3 C 0,0 C 0,0 C 88 % 1025,5 hPa 0,0 l/m 0,0 km/h (0 Bft) SO 135 0 min 0,000 mm 0 W/m 0,5 C 2,3 C 0,0 km/h (0 Bft) 0,00 %
09.01.2012 05:05 2,2 C 0,0 C 0,0 C 88 % 1025,5 hPa 0,0 l/m 0,0 km/h (0 Bft) W-NW 285 0 min 0,000 mm 0 W/m 0,4 C 2,2 C 0,0 km/h (0 Bft) 0,00 %
09.01.2012 05:10 2,2 C 0,0 C 0,0 C 88 % 1025,5 hPa 0,0 l/m 0,0 km/h (0 Bft) NW 305 0 min 0,000 mm 0 W/m 0,4 C 2,2 C 0,0 km/h (0 Bft) 0,00 %
09.01.2012 05:15 2,3 C 0,0 C 0,0 C 88 % 1025,5 hPa 0,0 l/m 3,9 km/h (1 Bft) W 265 0 min 0,000 mm 0 W/m 0,5 C 2,3 C 3,9 km/h (1 Bft) 0,00 %
09.01.2012 05:20 2,4 C 0,0 C 0,0 C 88 % 1025,5 hPa 0,0 l/m 1,5 km/h (1 Bft) SW 215 0 min 0,000 mm 0 W/m 0,6 C 2,4 C 1,5 km/h (1 Bft) 0,00 %
09.01.2012 05:25 2,6 C 0,0 C 0,0 C 88 % 1025,5 hPa 0,0 l/m 4,5 km/h (1 Bft) NW 315 0 min 0,000 mm 0 W/m 0,8 C 2,6 C 4,5 km/h (1 Bft) 0,00 %
09.01.2012 05:30 2,7 C 0,0 C 0,0 C 88 % 1025,5 hPa 0,0 l/m 6,7 km/h (2 Bft) W 270 0 min 0,000 mm 0 W/m 0,9 C 0,8 C 6,7 km/h (2 Bft) 0,00 %
09.01.2012 05:35 2,9 C 0,0 C 0,0 C 88 % 1025,5 hPa 0,0 l/m 7,9 km/h (2 Bft) W-NW 300 0 min 0,000 mm 0 W/m 1,1 C 0,7 C 7,9 km/h (2 Bft) 0,00 %
09.01.2012 05:40 3,0 C 0,0 C 0,0 C 87 % 1025,5 hPa 0,0 l/m 9,7 km/h (2 Bft) W-SW 240 0 min 0,000 mm 0 W/m 1,1 C 0,3 C 9,7 km/h (2 Bft) 0,00 %
09.01.2012 05:45 3,1 C 0,0 C 0,0 C 87 % 1025,5 hPa 0,0 l/m 7,9 km/h (2 Bft) W 270 0 min 0,000 mm 0 W/m 1,2 C 0,9 C 7,9 km/h (2 Bft) 0,00 %
09.01.2012 05:50 3,1 C 0,0 C 0,0 C 87 % 1025,5 hPa 0,0 l/m 9,4 km/h (2 Bft) W 260 0 min 0,000 mm 0 W/m 1,2 C 0,5 C 9,4 km/h (2 Bft) 0,00 %
09.01.2012 05:55 3,1 C 0,0 C 0,0 C 87 % 1025,5 hPa 0,0 l/m 7,3 km/h (2 Bft) W 275 0 min 0,000 mm 0 W/m 1,2 C 1,1 C 7,3 km/h (2 Bft) 0,00 %
09.01.2012 06:00 3,1 C 0,0 C 0,0 C 87 % 1025,5 hPa 0,0 l/m 8,5 km/h (2 Bft) NW 315 0 min 0,000 mm 0 W/m 1,2 C 0,8 C 8,5 km/h (2 Bft) 0,00 %
09.01.2012 06:05 3,0 C 0,0 C 0,0 C 87 % 1025,5 hPa 0,0 l/m 8,2 km/h (2 Bft) W-SW 240 0 min 0,000 mm 0 W/m 1,1 C 0,7 C 8,2 km/h (2 Bft) 0,00 %
09.01.2012 06:10 3,0 C 0,0 C 0,0 C 87 % 1025,5 hPa 0,0 l/m 7,3 km/h (2 Bft) N-NW 330 0 min 0,000 mm 0 W/m 1,1 C 1,0 C 7,3 km/h (2 Bft) 0,00 %
09.01.2012 06:15 3,0 C 0,0 C 0,0 C 87 % 1025,5 hPa 0,0 l/m 7,3 km/h (2 Bft) W-SW 245 0 min 0,000 mm 0 W/m 1,1 C 1,0 C 7,3 km/h (2 Bft) 0,00 %
09.01.2012 06:20 3,0 C 0,0 C 0,0 C 87 % 1025,5 hPa 0,0 l/m 7,3 km/h (2 Bft) W 265 0 min 0,000 mm 0 W/m 1,1 C 1,0 C 7,3 km/h (2 Bft) 0,00 %
09.01.2012 06:25 3,0 C 0,0 C 0,0 C 87 % 1025,5 hPa 0,0 l/m 8,5 km/h (2 Bft) W 265 0 min 0,000 mm 0 W/m 1,1 C 0,6 C 8,5 km/h (2 Bft) 0,00 %
09.01.2012 06:30 2,9 C 0,0 C 0,0 C 87 % 1025,5 hPa 0,0 l/m 6,7 km/h (2 Bft) W-SW 245 0 min 0,000 mm 0 W/m 1,0 C 1,1 C 6,7 km/h (2 Bft) 0,00 %
09.01.2012 06:35 2,9 C 0,0 C 0,0 C 88 % 1025,5 hPa 0,0 l/m 8,5 km/h (2 Bft) N 355 0 min 0,000 mm 0 W/m 1,1 C 0,5 C 8,5 km/h (2 Bft) 0,00 %
09.01.2012 06:40 2,9 C 0,0 C 0,0 C 88 % 1025,5 hPa 0,0 l/m 10,3 km/h (2 Bft) W-NW 290 0 min 0,000 mm 0 W/m 1,1 C 0,1 C 10,3 km/h (2 Bft) 0,00 %
09.01.2012 06:45 2,9 C 0,0 C 0,0 C 88 % 1025,5 hPa 0,0 l/m 9,1 km/h (2 Bft) W 265 0 min 0,000 mm 0 W/m 1,1 C 0,4 C 9,1 km/h (2 Bft) 0,00 %
09.01.2012 06:50 2,9 C 0,0 C 0,0 C 88 % 1025,5 hPa 0,0 l/m 7,6 km/h (2 Bft) W 270 0 min 0,000 mm 0 W/m 1,1 C 0,8 C 7,6 km/h (2 Bft) 0,00 %
09.01.2012 06:55 2,9 C 0,0 C 0,0 C 88 % 1025,5 hPa 0,0 l/m 6,4 km/h (2 Bft) W-NW 290 0 min 0,000 mm 0 W/m 1,1 C 1,2 C 6,4 km/h (2 Bft) 0,00 %
09.01.2012 07:00 2,9 C 0,0 C 0,0 C 88 % 1025,5 hPa 0,0 l/m 7,3 km/h (2 Bft) S-SW 205 0 min 0,000 mm 0 W/m 1,1 C 0,9 C 7,3 km/h (2 Bft) 0,00 %
09.01.2012 07:05 3,0 C 0,0 C 0,0 C 88 % 1025,5 hPa 0,0 l/m 7,6 km/h (2 Bft) N-NW 330 0 min 0,000 mm 0 W/m 1,2 C 0,9 C 7,6 km/h (2 Bft) 0,00 %
09.01.2012 07:10 3,0 C 0,0 C 0,0 C 88 % 1025,5 hPa 0,0 l/m 7,9 km/h (2 Bft) W-NW 285 0 min 0,000 mm 0 W/m 1,2 C 0,8 C 7,9 km/h (2 Bft) 0,00 %
09.01.2012 07:15 3,0 C 0,0 C 0,0 C 88 % 1025,5 hPa 0,0 l/m 8,2 km/h (2 Bft) W-NW 290 0 min 0,000 mm 0 W/m 1,2 C 0,7 C 8,2 km/h (2 Bft) 0,00 %
09.01.2012 07:20 3,0 C 0,0 C 0,0 C 88 % 1025,5 hPa 0,0 l/m 5,4 km/h (1 Bft) W-NW 285 0 min 0,000 mm 0 W/m 1,2 C 1,7 C 5,4 km/h (1 Bft) 0,00 %
09.01.2012 07:25 3,0 C 0,0 C 0,0 C 88 % 1025,5 hPa 0,0 l/m 5,4 km/h (1 Bft) W-SW 240 0 min 0,000 mm 0 W/m 1,2 C 1,7 C 5,4 km/h (1 Bft) 0,00 %
09.01.2012 07:30 3,0 C 0,0 C 0,0 C 88 % 1025,5 hPa 0,0 l/m 6,7 km/h (2 Bft) W-NW 290 0 min 0,000 mm 0 W/m 1,2 C 1,2 C 6,7 km/h (2 Bft) 0,00 %
09.01.2012 07:35 3,1 C 0,0 C 0,0 C 88 % 1025,5 hPa 0,0 l/m 10,9 km/h (2 Bft) N-NW 330 0 min 0,000 mm 0 W/m 1,3 C 0,2 C 10,9 km/h (2 Bft) 0,00 %
09.01.2012 07:40 3,1 C 0,0 C 0,0 C 89 % 1025,5 hPa 0,0 l/m 6,4 km/h (2 Bft) W 280 0 min 0,000 mm 0 W/m 1,5 C 1,4 C 6,4 km/h (2 Bft) 0,00 %
09.01.2012 07:45 3,1 C 0,0 C 0,0 C 89 % 1025,5 hPa 0,0 l/m 8,5 km/h (2 Bft) W-SW 255 0 min 0,000 mm 0 W/m 1,5 C 0,8 C 8,5 km/h (2 Bft) 0,00 %
09.01.2012 07:50 3,1 C 0,0 C 0,0 C 89 % 1025,5 hPa 0,0 l/m 5,4 km/h (1 Bft) W 280 0 min 0,000 mm 0 W/m 1,5 C 1,8 C 5,4 km/h (1 Bft) 0,00 %
09.01.2012 07:55 3,1 C 0,0 C 0,0 C 89 % 1025,5 hPa 0,0 l/m 5,4 km/h (1 Bft) NW 315 0 min 0,000 mm 0 W/m 1,5 C 1,8 C 5,4 km/h (1 Bft) 0,00 %
09.01.2012 08:00 3,1 C 0,0 C 0,0 C 89 % 1025,5 hPa 0,0 l/m 7,3 km/h (2 Bft) N-NW 330 0 min 0,000 mm 0 W/m 1,5 C 1,1 C 7,3 km/h (2 Bft) 0,00 %
09.01.2012 08:05 3,1 C 0,0 C 0,0 C 89 % 1025,5 hPa 0,0 l/m 9,1 km/h (2 Bft) S 170 0 min 0,000 mm 0 W/m 1,5 C 0,6 C 9,1 km/h (2 Bft) 0,00 %
09.01.2012 08:10 3,1 C 0,0 C 0,0 C 89 % 1025,5 hPa 0,0 l/m 5,7 km/h (1 Bft) SW 235 0 min 0,000 mm 0 W/m 1,5 C 1,6 C 5,7 km/h (1 Bft) 0,00 %
09.01.2012 08:15 3,1 C 0,0 C 0,0 C 89 % 1025,5 hPa 0,0 l/m 3,6 km/h (1 Bft) NW 310 0 min 0,000 mm 0 W/m 1,5 C 3,1 C 3,6 km/h (1 Bft) 0,00 %
09.01.2012 08:20 3,1 C 0,0 C 0,0 C 89 % 1025,5 hPa 0,0 l/m 10,0 km/h (2 Bft) W-NW 285 0 min 0,000 mm 0 W/m 1,5 C 0,4 C 10,0 km/h (2 Bft) 0,00 %
09.01.2012 08:25 3,1 C 0,0 C 0,0 C 89 % 1026,5 hPa 0,0 l/m 10,0 km/h (2 Bft) W-NW 290 0 min 0,000 mm 0 W/m 1,5 C 0,4 C 10,0 km/h (2 Bft) 0,00 %
09.01.2012 08:30 3,1 C 0,0 C 0,0 C 89 % 1026,5 hPa 0,0 l/m 9,1 km/h (2 Bft) SW 225 0 min 0,000 mm 0 W/m 1,5 C 0,6 C 9,1 km/h (2 Bft) 0,00 %
09.01.2012 08:35 3,2 C 0,0 C 0,0 C 89 % 1026,5 hPa 0,0 l/m 7,6 km/h (2 Bft) SW 215 0 min 0,000 mm 0 W/m 1,6 C 1,1 C 7,6 km/h (2 Bft) 0,00 %
09.01.2012 08:40 3,1 C 0,0 C 0,0 C 89 % 1026,5 hPa 0,0 l/m 1,2 km/h (1 Bft) W-NW 295 0 min 0,000 mm 0 W/m 1,5 C 3,1 C 1,2 km/h (1 Bft) 0,00 %
09.01.2012 08:45 3,1 C 0,0 C 0,0 C 89 % 1026,5 hPa 0,3 l/m 7,9 km/h (2 Bft) W-SW 250 0 min 0,000 mm 0 W/m 1,5 C 0,9 C 7,9 km/h (2 Bft) 0,00 %
09.01.2012 08:50 3,1 C 0,0 C 0,0 C 89 % 1026,5 hPa 0,0 l/m 7,6 km/h (2 Bft) W 280 0 min 0,000 mm 0 W/m 1,5 C 1,0 C 7,6 km/h (2 Bft) 0,00 %
09.01.2012 08:55 3,2 C 0,0 C 0,0 C 89 % 1026,5 hPa 0,0 l/m 0,6 km/h (0 Bft) N-NW 340 0 min 0,000 mm 0 W/m 1,6 C 3,2 C 0,6 km/h (0 Bft) 0,00 %
09.01.2012 09:00 3,1 C 0,0 C 0,0 C 89 % 1026,5 hPa 0,0 l/m 1,8 km/h (1 Bft) W-SW 240 0 min 0,000 mm 0 W/m 1,5 C 3,1 C 1,8 km/h (1 Bft) 0,00 %
09.01.2012 09:05 3,1 C 0,0 C 0,0 C 89 % 1026,5 hPa 0,0 l/m 4,8 km/h (1 Bft) S-SW 205 0 min 0,000 mm 0 W/m 1,5 C 2,0 C 4,8 km/h (1 Bft) 0,00 %
09.01.2012 09:10 3,1 C 0,0 C 0,0 C 89 % 1026,5 hPa 0,0 l/m 4,2 km/h (1 Bft) N-NW 330 0 min 0,000 mm 0 W/m 1,5 C 3,1 C 4,2 km/h (1 Bft) 0,00 %
09.01.2012 09:15 3,1 C 0,0 C 0,0 C 89 % 1026,5 hPa 0,0 l/m 7,9 km/h (2 Bft) S-SW 195 0 min 0,000 mm 0 W/m 1,5 C 0,9 C 7,9 km/h (2 Bft) 0,00 %
09.01.2012 09:20 3,1 C 0,0 C 0,0 C 89 % 1026,5 hPa 0,0 l/m 3,3 km/h (1 Bft) NW 315 0 min 0,000 mm 0 W/m 1,5 C 3,1 C 3,3 km/h (1 Bft) 0,00 %
09.01.2012 09:25 3,1 C 0,0 C 0,0 C 89 % 1026,5 hPa 0,3 l/m 10,3 km/h (2 Bft) SO 130 0 min 0,000 mm 0 W/m 1,5 C 0,3 C 10,3 km/h (2 Bft) 0,00 %
09.01.2012 09:30 3,2 C 0,0 C 0,0 C 89 % 1026,5 hPa 0,0 l/m 7,0 km/h (2 Bft) S-SW 210 0 min 0,000 mm 0 W/m 1,6 C 1,3 C 7,0 km/h (2 Bft) 0,00 %
09.01.2012 09:35 3,2 C 0,0 C 0,0 C 89 % 1026,5 hPa 0,0 l/m 6,1 km/h (2 Bft) W-SW 255 0 min 0,000 mm 0 W/m 1,6 C 1,6 C 6,1 km/h (2 Bft) 0,00 %
09.01.2012 09:40 3,2 C 0,0 C 0,0 C 89 % 1026,5 hPa 0,0 l/m 6,4 km/h (2 Bft) S-SW 205 0 min 0,000 mm 0 W/m 1,6 C 1,5 C 6,4 km/h (2 Bft) 0,00 %
09.01.2012 09:45 3,3 C 0,0 C 0,0 C 89 % 1026,5 hPa 0,0 l/m 3,9 km/h (1 Bft) W 280 0 min 0,000 mm 0 W/m 1,7 C 3,3 C 3,9 km/h (1 Bft) 0,00 %
09.01.2012 09:50 3,3 C 0,0 C 0,0 C 89 % 1026,5 hPa 0,0 l/m 3,6 km/h (1 Bft) S 185 0 min 0,000 mm 0 W/m 1,7 C 3,3 C 3,6 km/h (1 Bft) 0,00 %
09.01.2012 09:55 3,3 C 0,0 C 0,0 C 89 % 1026,5 hPa 0,3 l/m 3,0 km/h (1 Bft) SW 215 0 min 0,000 mm 0 W/m 1,7 C 3,3 C 3,0 km/h (1 Bft) 0,00 %
09.01.2012 10:00 3,3 C 0,0 C 0,0 C 89 % 1026,5 hPa 0,0 l/m 2,7 km/h (1 Bft) W 280 0 min 0,000 mm 0 W/m 1,7 C 3,3 C 2,7 km/h (1 Bft) 0,00 %
09.01.2012 10:05 3,3 C 0,0 C 0,0 C 89 % 1026,5 hPa 0,0 l/m 4,8 km/h (1 Bft) W-NW 290 0 min 0,000 mm 0 W/m 1,7 C 2,2 C 4,8 km/h (1 Bft) 0,00 %
09.01.2012 10:10 3,3 C 0,0 C 0,0 C 89 % 1026,5 hPa 0,0 l/m 3,6 km/h (1 Bft) SW 230 0 min 0,000 mm 0 W/m 1,7 C 3,3 C 3,6 km/h (1 Bft) 0,00 %
09.01.2012 10:15 3,4 C 0,0 C 0,0 C 89 % 1026,5 hPa 0,0 l/m 3,3 km/h (1 Bft) W-NW 300 0 min 0,000 mm 0 W/m 1,8 C 3,4 C 3,3 km/h (1 Bft) 0,00 %
09.01.2012 10:20 3,4 C 0,0 C 0,0 C 89 % 1026,5 hPa 0,0 l/m 10,0 km/h (2 Bft) S-SO 165 0 min 0,000 mm 0 W/m 1,8 C 0,7 C 10,0 km/h (2 Bft) 0,00 %
09.01.2012 10:25 3,5 C 0,0 C 0,0 C 89 % 1026,5 hPa 0,0 l/m 4,8 km/h (1 Bft) N 355 0 min 0,000 mm 0 W/m 1,9 C 2,5 C 4,8 km/h (1 Bft) 0,00 %
09.01.2012 10:30 3,5 C 0,0 C 0,0 C 89 % 1026,5 hPa 0,3 l/m 6,7 km/h (2 Bft) NW 320 0 min 0,000 mm 0 W/m 1,9 C 1,8 C 6,7 km/h (2 Bft) 0,00 %
09.01.2012 10:35 3,5 C 0,0 C 0,0 C 89 % 1026,5 hPa 0,0 l/m 9,7 km/h (2 Bft) NW 310 0 min 0,000 mm 0 W/m 1,9 C 0,9 C 9,7 km/h (2 Bft) 0,00 %
09.01.2012 10:40 3,6 C 0,0 C 0,0 C 89 % 1026,5 hPa 0,0 l/m 13,6 km/h (3 Bft) N-NW 330 0 min 0,000 mm 0 W/m 2,0 C 0,3 C 13,6 km/h (3 Bft) 0,00 %
09.01.2012 10:45 3,6 C 0,0 C 0,0 C 89 % 1026,5 hPa 0,0 l/m 8,5 km/h (2 Bft) NW 325 0 min 0,000 mm 0 W/m 2,0 C 1,4 C 8,5 km/h (2 Bft) 0,00 %
09.01.2012 10:50 3,6 C 0,0 C 0,0 C 89 % 1026,5 hPa 0,0 l/m 9,4 km/h (2 Bft) S-SO 160 0 min 0,000 mm 0 W/m 2,0 C 1,1 C 9,4 km/h (2 Bft) 0,00 %
09.01.2012 10:55 3,6 C 0,0 C 0,0 C 89 % 1026,5 hPa 0,0 l/m 10,6 km/h (2 Bft) W-NW 300 0 min 0,000 mm 0 W/m 2,0 C 0,9 C 10,6 km/h (2 Bft) 0,00 %
09.01.2012 11:00 3,7 C 0,0 C 0,0 C 89 % 1026,5 hPa 0,0 l/m 12,4 km/h (3 Bft) W 280 0 min 0,000 mm 0 W/m 2,1 C 0,6 C 12,4 km/h (3 Bft) 0,00 %
09.01.2012 11:05 3,7 C 0,0 C 0,0 C 89 % 1026,5 hPa 0,0 l/m 13,6 km/h (3 Bft) W-NW 285 0 min 0,000 mm 0 W/m 2,1 C 0,4 C 13,6 km/h (3 Bft) 0,00 %
09.01.2012 11:10 3,6 C 0,0 C 0,0 C 89 % 1026,5 hPa 0,3 l/m 7,0 km/h (2 Bft) W-NW 300 0 min 0,000 mm 0 W/m 2,0 C 1,8 C 7,0 km/h (2 Bft) 0,00 %
09.01.2012 11:15 3,7 C 0,0 C 0,0 C 89 % 1026,5 hPa 0,0 l/m 10,0 km/h (2 Bft) N-NW 335 0 min 0,000 mm 0 W/m 2,1 C 1,1 C 10,0 km/h (2 Bft) 0,00 %
09.01.2012 11:20 3,6 C 0,0 C 0,0 C 89 % 1026,5 hPa 0,0 l/m 15,1 km/h (3 Bft) W-NW 295 0 min 0,000 mm 0 W/m 2,0 C 0,0 C 15,1 km/h (3 Bft) 0,00 %
09.01.2012 11:25 3,6 C 0,0 C 0,0 C 89 % 1025,5 hPa 0,0 l/m 16,9 km/h (3 Bft) W-SW 240 0 min 0,000 mm 0 W/m 2,0 C -0,3 C 16,9 km/h (3 Bft) 0,00 %
09.01.2012 11:30 3,6 C 0,0 C 0,0 C 89 % 1025,5 hPa 0,0 l/m 13,6 km/h (3 Bft) W 280 0 min 0,000 mm 0 W/m 2,0 C 0,3 C 13,6 km/h (3 Bft) 0,00 %
09.01.2012 11:35 3,6 C 0,0 C 0,0 C 89 % 1025,5 hPa 0,0 l/m 12,7 km/h (3 Bft) W 275 0 min 0,000 mm 0 W/m 2,0 C 0,4 C 12,7 km/h (3 Bft) 0,00 %
09.01.2012 11:40 3,6 C 0,0 C 0,0 C 89 % 1026,5 hPa 0,0 l/m 12,4 km/h (3 Bft) W-NW 300 0 min 0,000 mm 0 W/m 2,0 C 0,5 C 12,4 km/h (3 Bft) 0,00 %
09.01.2012 11:45 3,6 C 0,0 C 0,0 C 89 % 1026,5 hPa 0,0 l/m 15,4 km/h (3 Bft) N 350 0 min 0,000 mm 0 W/m 2,0 C -0,0 C 15,4 km/h (3 Bft) 0,00 %
09.01.2012 11:50 3,6 C 0,0 C 0,0 C 89 % 1026,5 hPa 0,0 l/m 17,2 km/h (3 Bft) W 265 0 min 0,000 mm 0 W/m 2,0 C -0,3 C 17,2 km/h (3 Bft) 0,00 %
09.01.2012 11:55 3,6 C 0,0 C 0,0 C 89 % 1026,5 hPa 0,0 l/m 10,9 km/h (2 Bft) W 275 0 min 0,000 mm 0 W/m 2,0 C 0,8 C 10,9 km/h (2 Bft) 0,00 %
09.01.2012 12:00 3,6 C 0,0 C 0,0 C 89 % 1026,5 hPa 0,0 l/m 15,4 km/h (3 Bft) NW 310 0 min 0,000 mm 0 W/m 2,0 C -0,0 C 15,4 km/h (3 Bft) 0,00 %
09.01.2012 12:05 3,6 C 0,0 C 0,0 C 89 % 1026,5 hPa 0,0 l/m 12,7 km/h (3 Bft) W-SW 240 0 min 0,000 mm 0 W/m 2,0 C 0,4 C 12,7 km/h (3 Bft) 0,00 %
09.01.2012 12:10 3,7 C 0,0 C 0,0 C 90 % 1026,5 hPa 0,0 l/m 9,4 km/h (2 Bft) N-NW 330 0 min 0,000 mm 0 W/m 2,2 C 1,2 C 9,4 km/h (2 Bft) 0,00 %
09.01.2012 12:15 3,6 C 0,0 C 0,0 C 89 % 1026,5 hPa 0,0 l/m 13,3 km/h (3 Bft) NW 315 0 min 0,000 mm 0 W/m 2,0 C 0,3 C 13,3 km/h (3 Bft) 0,00 %
09.01.2012 12:20 3,6 C 0,0 C 0,0 C 89 % 1026,5 hPa 0,0 l/m 11,5 km/h (2 Bft) SW 215 0 min 0,000 mm 0 W/m 2,0 C 0,7 C 11,5 km/h (2 Bft) 0,00 %
09.01.2012 12:25 3,7 C 0,0 C 0,0 C 90 % 1026,5 hPa 0,0 l/m 15,4 km/h (3 Bft) SW 230 0 min 0,000 mm 0 W/m 2,2 C 0,1 C 15,4 km/h (3 Bft) 0,00 %
09.01.2012 12:30 3,7 C 0,0 C 0,0 C 90 % 1026,5 hPa 0,0 l/m 15,7 km/h (3 Bft) NW 315 0 min 0,000 mm 0 W/m 2,2 C 0,0 C 15,7 km/h (3 Bft) 0,00 %
09.01.2012 12:35 3,8 C 0,0 C 0,0 C 90 % 1026,5 hPa 0,0 l/m 10,9 km/h (2 Bft) O 80 0 min 0,000 mm 0 W/m 2,3 C 1,0 C 10,9 km/h (2 Bft) 0,00 %
09.01.2012 12:40 3,7 C 0,0 C 0,0 C 90 % 1026,5 hPa 0,0 l/m 13,3 km/h (3 Bft) O 85 0 min 0,000 mm 0 W/m 2,2 C 0,4 C 13,3 km/h (3 Bft) 0,00 %
09.01.2012 12:45 3,8 C 0,0 C 0,0 C 90 % 1026,5 hPa 0,0 l/m 13,6 km/h (3 Bft) W-SW 240 0 min 0,000 mm 0 W/m 2,3 C 0,5 C 13,6 km/h (3 Bft) 0,00 %
09.01.2012 12:50 3,7 C 0,0 C 0,0 C 90 % 1026,5 hPa 0,0 l/m 11,5 km/h (2 Bft) W-NW 295 0 min 0,000 mm 0 W/m 2,2 C 0,8 C 11,5 km/h (2 Bft) 0,00 %
09.01.2012 12:55 3,8 C 0,0 C 0,0 C 90 % 1026,5 hPa 0,0 l/m 13,0 km/h (3 Bft) W 265 0 min 0,000 mm 0 W/m 2,3 C 0,6 C 13,0 km/h (3 Bft) 0,00 %
09.01.2012 13:00 3,8 C 0,0 C 0,0 C 90 % 1026,5 hPa 0,0 l/m 10,6 km/h (2 Bft) SW 215 0 min 0,000 mm 0 W/m 2,3 C 1,1 C 10,6 km/h (2 Bft) 0,00 %
09.01.2012 13:05 3,8 C 0,0 C 0,0 C 90 % 1026,5 hPa 0,0 l/m 5,4 km/h (1 Bft) W 275 0 min 0,000 mm 0 W/m 2,3 C 2,6 C 5,4 km/h (1 Bft) 0,00 %
09.01.2012 13:10 3,9 C 0,0 C 0,0 C 90 % 1025,5 hPa 0,0 l/m 6,4 km/h (2 Bft) W-NW 300 0 min 0,000 mm 0 W/m 2,4 C 2,3 C 6,4 km/h (2 Bft) 0,00 %
09.01.2012 13:15 3,9 C 0,0 C 0,0 C 90 % 1025,5 hPa 0,0 l/m 12,1 km/h (2 Bft) W-SW 240 0 min 0,000 mm 0 W/m 2,4 C 0,9 C 12,1 km/h (2 Bft) 0,00 %
09.01.2012 13:20 3,8 C 0,0 C 0,0 C 90 % 1025,5 hPa 0,0 l/m 12,1 km/h (2 Bft) W 280 0 min 0,000 mm 0 W/m 2,3 C 0,8 C 12,1 km/h (2 Bft) 0,00 %
09.01.2012 13:25 3,9 C 0,0 C 0,0 C 90 % 1025,5 hPa 0,0 l/m 9,7 km/h (2 Bft) W 275 0 min 0,000 mm 0 W/m 2,4 C 1,4 C 9,7 km/h (2 Bft) 0,00 %
09.01.2012 13:30 3,8 C 0,0 C 0,0 C 90 % 1025,5 hPa 0,0 l/m 10,6 km/h (2 Bft) S 190 0 min 0,000 mm 0 W/m 2,3 C 1,1 C 10,6 km/h (2 Bft) 0,00 %
09.01.2012 13:35 3,9 C 0,0 C 0,0 C 90 % 1025,5 hPa 0,0 l/m 10,0 km/h (2 Bft) W 260 0 min 0,000 mm 0 W/m 2,4 C 1,3 C 10,0 km/h (2 Bft) 0,00 %
09.01.2012 13:40 3,9 C 0,0 C 0,0 C 90 % 1025,5 hPa 0,0 l/m 12,7 km/h (3 Bft) W 270 0 min 0,000 mm 0 W/m 2,4 C 0,8 C 12,7 km/h (3 Bft) 0,00 %
09.01.2012 13:45 3,9 C 0,0 C 0,0 C 90 % 1025,5 hPa 0,0 l/m 8,5 km/h (2 Bft) W-NW 285 0 min 0,000 mm 0 W/m 2,4 C 1,7 C 8,5 km/h (2 Bft) 0,00 %
09.01.2012 13:50 3,9 C 0,0 C 0,0 C 90 % 1025,5 hPa 0,0 l/m 16,9 km/h (3 Bft) W-NW 295 0 min 0,000 mm 0 W/m 2,4 C 0,1 C 16,9 km/h (3 Bft) 0,00 %
09.01.2012 13:55 3,9 C 0,0 C 0,0 C 90 % 1026,5 hPa 0,0 l/m 11,2 km/h (2 Bft) S-SW 210 0 min 0,000 mm 0 W/m 2,4 C 1,1 C 11,2 km/h (2 Bft) 0,00 %
09.01.2012 14:00 3,9 C 0,0 C 0,0 C 90 % 1026,5 hPa 0,0 l/m 6,4 km/h (2 Bft) W-NW 300 0 min 0,000 mm 0 W/m 2,4 C 2,3 C 6,4 km/h (2 Bft) 0,00 %
09.01.2012 14:05 3,9 C 0,0 C 0,0 C 90 % 1026,5 hPa 0,0 l/m 8,5 km/h (2 Bft) W-SW 255 0 min 0,000 mm 0 W/m 2,4 C 1,7 C 8,5 km/h (2 Bft) 0,00 %
09.01.2012 14:10 3,9 C 0,0 C 0,0 C 90 % 1026,5 hPa 0,0 l/m 9,7 km/h (2 Bft) W-SW 240 0 min 0,000 mm 0 W/m 2,4 C 1,4 C 9,7 km/h (2 Bft) 0,00 %
09.01.2012 14:15 3,9 C 0,0 C 0,0 C 90 % 1026,5 hPa 0,0 l/m 9,7 km/h (2 Bft) N-NW 330 0 min 0,000 mm 0 W/m 2,4 C 1,4 C 9,7 km/h (2 Bft) 0,00 %
09.01.2012 14:20 4,0 C 0,0 C 0,0 C 90 % 1026,5 hPa 0,0 l/m 6,4 km/h (2 Bft) W 280 0 min 0,000 mm 0 W/m 2,5 C 2,4 C 6,4 km/h (2 Bft) 0,00 %
09.01.2012 14:25 4,0 C 0,0 C 0,0 C 90 % 1025,5 hPa 0,0 l/m 7,9 km/h (2 Bft) O-NO 65 0 min 0,000 mm 0 W/m 2,5 C 2,0 C 7,9 km/h (2 Bft) 0,00 %
09.01.2012 14:30 4,0 C 0,0 C 0,0 C 90 % 1025,5 hPa 0,0 l/m 11,2 km/h (2 Bft) W-NW 295 0 min 0,000 mm 0 W/m 2,5 C 1,2 C 11,2 km/h (2 Bft) 0,00 %
09.01.2012 14:35 4,0 C 0,0 C 0,0 C 90 % 1025,5 hPa 0,0 l/m 8,2 km/h (2 Bft) NW 305 0 min 0,000 mm 0 W/m 2,5 C 1,9 C 8,2 km/h (2 Bft) 0,00 %
09.01.2012 14:40 4,0 C 0,0 C 0,0 C 90 % 1026,5 hPa 0,0 l/m 7,0 km/h (2 Bft) S-SW 205 0 min 0,000 mm 0 W/m 2,5 C 2,2 C 7,0 km/h (2 Bft) 0,00 %
09.01.2012 14:45 4,0 C 0,0 C 0,0 C 90 % 1026,5 hPa 0,0 l/m 6,7 km/h (2 Bft) W-SW 240 0 min 0,000 mm 0 W/m 2,5 C 2,3 C 6,7 km/h (2 Bft) 0,00 %
09.01.2012 14:50 4,1 C 0,0 C 0,0 C 90 % 1026,5 hPa 0,0 l/m 5,7 km/h (1 Bft) O 85 0 min 0,000 mm 0 W/m 2,6 C 2,8 C 5,7 km/h (1 Bft) 0,00 %
09.01.2012 14:55 4,1 C 0,0 C 0,0 C 90 % 1026,5 hPa 0,0 l/m 7,6 km/h (2 Bft) W 275 0 min 0,000 mm 0 W/m 2,6 C 2,2 C 7,6 km/h (2 Bft) 0,00 %
09.01.2012 15:00 4,1 C 0,0 C 0,0 C 90 % 1026,5 hPa 0,0 l/m 5,7 km/h (1 Bft) NW 325 0 min 0,000 mm 0 W/m 2,6 C 2,8 C 5,7 km/h (1 Bft) 0,00 %
09.01.2012 15:05 4,2 C 0,0 C 0,0 C 90 % 1026,5 hPa 0,0 l/m 5,7 km/h (1 Bft) W-SW 245 0 min 0,000 mm 0 W/m 2,7 C 2,9 C 5,7 km/h (1 Bft) 0,00 %
09.01.2012 15:10 4,1 C 0,0 C 0,0 C 90 % 1025,5 hPa 0,0 l/m 4,2 km/h (1 Bft) NW 320 0 min 0,000 mm 0 W/m 2,6 C 4,1 C 4,2 km/h (1 Bft) 0,00 %
09.01.2012 15:15 4,2 C 0,0 C 0,0 C 90 % 1025,5 hPa 0,0 l/m 4,5 km/h (1 Bft) NW 320 0 min 0,000 mm 0 W/m 2,7 C 4,2 C 4,5 km/h (1 Bft) 0,00 %
09.01.2012 15:20 4,3 C 0,0 C 0,0 C 90 % 1025,5 hPa 0,0 l/m 4,5 km/h (1 Bft) W-SW 255 0 min 0,000 mm 0 W/m 2,8 C 4,3 C 4,5 km/h (1 Bft) 0,00 %
09.01.2012 15:25 4,3 C 0,0 C 0,0 C 90 % 1025,5 hPa 0,0 l/m 6,7 km/h (2 Bft) W-NW 300 0 min 0,000 mm 0 W/m 2,8 C 2,7 C 6,7 km/h (2 Bft) 0,00 %
09.01.2012 15:30 4,3 C 0,0 C 0,0 C 90 % 1025,5 hPa 0,0 l/m 7,3 km/h (2 Bft) W-SW 255 0 min 0,000 mm 0 W/m 2,8 C 2,5 C 7,3 km/h (2 Bft) 0,00 %
09.01.2012 15:35 4,4 C 0,0 C 0,0 C 90 % 1025,5 hPa 0,0 l/m 4,8 km/h (1 Bft) N-NW 340 0 min 0,000 mm 0 W/m 2,9 C 3,5 C 4,8 km/h (1 Bft) 0,00 %
09.01.2012 15:40 4,4 C 0,0 C 0,0 C 90 % 1025,5 hPa 0,0 l/m 6,7 km/h (2 Bft) W-NW 285 0 min 0,000 mm 0 W/m 2,9 C 2,8 C 6,7 km/h (2 Bft) 0,00 %
09.01.2012 15:45 4,4 C 0,0 C 0,0 C 90 % 1025,5 hPa 0,0 l/m 3,3 km/h (1 Bft) W 280 0 min 0,000 mm 0 W/m 2,9 C 4,4 C 3,3 km/h (1 Bft) 0,00 %
09.01.2012 15:50 4,4 C 0,0 C 0,0 C 90 % 1025,5 hPa 0,0 l/m 5,7 km/h (1 Bft) S-SW 200 0 min 0,000 mm 0 W/m 2,9 C 3,1 C 5,7 km/h (1 Bft) 0,00 %
09.01.2012 15:55 4,4 C 0,0 C 0,0 C 90 % 1025,5 hPa 0,0 l/m 4,5 km/h (1 Bft) W 265 0 min 0,000 mm 0 W/m 2,9 C 4,4 C 4,5 km/h (1 Bft) 0,00 %
09.01.2012 16:00 4,4 C 0,0 C 0,0 C 90 % 1025,5 hPa 0,0 l/m 5,4 km/h (1 Bft) S-SW 205 0 min 0,000 mm 0 W/m 2,9 C 3,2 C 5,4 km/h (1 Bft) 0,00 %
09.01.2012 16:05 4,4 C 0,0 C 0,0 C 90 % 1025,5 hPa 0,0 l/m 6,1 km/h (2 Bft) SW 230 0 min 0,000 mm 0 W/m 2,9 C 3,0 C 6,1 km/h (2 Bft) 0,00 %
09.01.2012 16:10 4,4 C 0,0 C 0,0 C 90 % 1026,5 hPa 0,0 l/m 4,2 km/h (1 Bft) W 260 0 min 0,000 mm 0 W/m 2,9 C 4,4 C 4,2 km/h (1 Bft) 0,00 %
09.01.2012 16:15 4,5 C 0,0 C 0,0 C 90 % 1026,5 hPa 0,0 l/m 3,9 km/h (1 Bft) W-SW 240 0 min 0,000 mm 0 W/m 3,0 C 4,5 C 3,9 km/h (1 Bft) 0,00 %
09.01.2012 16:20 4,5 C 0,0 C 0,0 C 90 % 1026,5 hPa 0,0 l/m 5,7 km/h (1 Bft) W-NW 300 0 min 0,000 mm 0 W/m 3,0 C 3,3 C 5,7 km/h (1 Bft) 0,00 %
09.01.2012 16:25 4,5 C 0,0 C 0,0 C 90 % 1026,5 hPa 0,0 l/m 13,3 km/h (3 Bft) NO 35 0 min 0,000 mm 0 W/m 3,0 C 1,4 C 13,3 km/h (3 Bft) 0,00 %
09.01.2012 16:30 4,4 C 0,0 C 0,0 C 90 % 1026,5 hPa 0,0 l/m 6,4 km/h (2 Bft) W 270 0 min 0,000 mm 0 W/m 2,9 C 2,9 C 6,4 km/h (2 Bft) 0,00 %
09.01.2012 16:35 4,5 C 0,0 C 0,0 C 90 % 1026,5 hPa 0,0 l/m 3,6 km/h (1 Bft) W-NW 290 0 min 0,000 mm 0 W/m 3,0 C 4,5 C 3,6 km/h (1 Bft) 0,00 %
09.01.2012 16:40 4,5 C 0,0 C 0,0 C 90 % 1026,5 hPa 0,0 l/m 9,1 km/h (2 Bft) SW 215 0 min 0,000 mm 0 W/m 3,0 C 2,3 C 9,1 km/h (2 Bft) 0,00 %
09.01.2012 16:45 4,5 C 0,0 C 0,0 C 90 % 1026,5 hPa 0,0 l/m 6,1 km/h (2 Bft) W 265 0 min 0,000 mm 0 W/m 3,0 C 3,1 C 6,1 km/h (2 Bft) 0,00 %
09.01.2012 16:50 4,5 C 0,0 C 0,0 C 90 % 1026,5 hPa 0,0 l/m 6,1 km/h (2 Bft) SW 235 0 min 0,000 mm 0 W/m 3,0 C 3,1 C 6,1 km/h (2 Bft) 0,00 %
09.01.2012 16:55 4,6 C 0,0 C 0,0 C 90 % 1026,5 hPa 0,0 l/m 6,7 km/h (2 Bft) W-NW 290 0 min 0,000 mm 0 W/m 3,1 C 3,0 C 6,7 km/h (2 Bft) 0,00 %
09.01.2012 17:00 4,6 C 0,0 C 0,0 C 90 % 1026,5 hPa 0,0 l/m 4,5 km/h (1 Bft) W 275 0 min 0,000 mm 0 W/m 3,1 C 4,6 C 4,5 km/h (1 Bft) 0,00 %
09.01.2012 17:05 4,7 C 0,0 C 0,0 C 90 % 1026,5 hPa 0,0 l/m 9,1 km/h (2 Bft) SW 230 0 min 0,000 mm 0 W/m 3,2 C 2,5 C 9,1 km/h (2 Bft) 0,00 %
09.01.2012 17:10 4,6 C 0,0 C 0,0 C 90 % 1026,5 hPa 0,0 l/m 7,6 km/h (2 Bft) O-SO 110 0 min 0,000 mm 0 W/m 3,1 C 2,8 C 7,6 km/h (2 Bft) 0,00 %
09.01.2012 17:15 4,7 C 0,0 C 0,0 C 90 % 1026,5 hPa 0,0 l/m 3,9 km/h (1 Bft) W 260 0 min 0,000 mm 0 W/m 3,2 C 4,7 C 3,9 km/h (1 Bft) 0,00 %
09.01.2012 17:20 4,6 C 0,0 C 0,0 C 90 % 1026,5 hPa 0,0 l/m 2,7 km/h (1 Bft) S-SO 150 0 min 0,000 mm 0 W/m 3,1 C 4,6 C 2,7 km/h (1 Bft) 0,00 %
09.01.2012 17:25 4,7 C 0,0 C 0,0 C 90 % 1026,5 hPa 0,0 l/m 8,2 km/h (2 Bft) W 280 0 min 0,000 mm 0 W/m 3,2 C 2,7 C 8,2 km/h (2 Bft) 0,00 %
09.01.2012 17:30 4,7 C 0,0 C 0,0 C 90 % 1026,5 hPa 0,0 l/m 4,8 km/h (1 Bft) W-SW 250 0 min 0,000 mm 0 W/m 3,2 C 3,8 C 4,8 km/h (1 Bft) 0,00 %
09.01.2012 17:35 4,7 C 0,0 C 0,0 C 90 % 1026,5 hPa 0,0 l/m 7,9 km/h (2 Bft) S-SW 210 0 min 0,000 mm 0 W/m 3,2 C 2,8 C 7,9 km/h (2 Bft) 0,00 %
09.01.2012 17:40 4,7 C 0,0 C 0,0 C 90 % 1026,5 hPa 0,3 l/m 6,1 km/h (2 Bft) N 355 0 min 0,000 mm 0 W/m 3,2 C 3,3 C 6,1 km/h (2 Bft) 0,00 %
09.01.2012 17:45 4,7 C 0,0 C 0,0 C 90 % 1026,5 hPa 0,0 l/m 4,2 km/h (1 Bft) O-SO 105 0 min 0,000 mm 0 W/m 3,2 C 4,7 C 4,2 km/h (1 Bft) 0,00 %
09.01.2012 17:50 4,7 C 0,0 C 0,0 C 90 % 1026,5 hPa 0,0 l/m 3,9 km/h (1 Bft) SW 220 0 min 0,000 mm 0 W/m 3,2 C 4,7 C 3,9 km/h (1 Bft) 0,00 %
09.01.2012 17:55 4,7 C 0,0 C 0,0 C 90 % 1027,5 hPa 0,0 l/m 0,0 km/h (0 Bft) NW 320 0 min 0,000 mm 0 W/m 3,2 C 4,7 C 0,0 km/h (0 Bft) 0,00 %
09.01.2012 18:00 4,7 C 0,0 C 0,0 C 90 % 1027,5 hPa 0,0 l/m 0,0 km/h (0 Bft) W-NW 285 0 min 0,000 mm 0 W/m 3,2 C 4,7 C 0,0 km/h (0 Bft) 0,00 %
09.01.2012 18:05 4,8 C 0,0 C 0,0 C 90 % 1027,5 hPa 0,3 l/m 0,0 km/h (0 Bft) W 270 0 min 0,000 mm 0 W/m 3,3 C 4,8 C 0,0 km/h (0 Bft) 0,00 %
09.01.2012 18:10 4,7 C 0,0 C 0,0 C 90 % 1027,5 hPa 0,0 l/m 0,0 km/h (0 Bft) N 0 0 min 0,000 mm 0 W/m 3,2 C 4,7 C 0,0 km/h (0 Bft) 0,00 %
09.01.2012 18:15 4,8 C 0,0 C 0,0 C 90 % 1027,5 hPa 0,0 l/m 0,0 km/h (0 Bft) W-NW 295 0 min 0,000 mm 0 W/m 3,3 C 4,8 C 0,0 km/h (0 Bft) 0,00 %
09.01.2012 18:20 4,8 C 0,0 C 0,0 C 90 % 1027,5 hPa 0,0 l/m 0,0 km/h (0 Bft) W-SW 255 0 min 0,000 mm 0 W/m 3,3 C 4,8 C 0,0 km/h (0 Bft) 0,00 %
09.01.2012 18:25 4,8 C 0,0 C 0,0 C 90 % 1027,5 hPa 0,0 l/m 0,0 km/h (0 Bft) N-NW 330 0 min 0,000 mm 0 W/m 3,3 C 4,8 C 0,0 km/h (0 Bft) 0,00 %
09.01.2012 18:30 4,9 C 0,0 C 0,0 C 90 % 1027,5 hPa 0,0 l/m 4,8 km/h (1 Bft) W-NW 300 0 min 0,000 mm 0 W/m 3,4 C 4,0 C 4,8 km/h (1 Bft) 0,00 %
09.01.2012 18:35 4,9 C 0,0 C 0,0 C 90 % 1027,5 hPa 0,0 l/m 9,7 km/h (2 Bft) W-NW 290 0 min 0,000 mm 0 W/m 3,4 C 2,6 C 9,7 km/h (2 Bft) 0,00 %
09.01.2012 18:40 4,9 C 0,0 C 0,0 C 90 % 1026,5 hPa 0,0 l/m 5,4 km/h (1 Bft) W 270 0 min 0,000 mm 0 W/m 3,4 C 3,8 C 5,4 km/h (1 Bft) 0,00 %
09.01.2012 18:45 4,9 C 0,0 C 0,0 C 90 % 1026,5 hPa 0,0 l/m 7,0 km/h (2 Bft) SW 225 0 min 0,000 mm 0 W/m 3,4 C 3,3 C 7,0 km/h (2 Bft) 0,00 %
09.01.2012 18:50 4,9 C 0,0 C 0,0 C 90 % 1026,5 hPa 0,0 l/m 7,3 km/h (2 Bft) W-SW 245 0 min 0,000 mm 0 W/m 3,4 C 3,2 C 7,3 km/h (2 Bft) 0,00 %
09.01.2012 18:55 5,0 C 0,0 C 0,0 C 90 % 1027,5 hPa 0,0 l/m 7,3 km/h (2 Bft) W-NW 300 0 min 0,000 mm 0 W/m 3,5 C 3,3 C 7,3 km/h (2 Bft) 0,00 %
09.01.2012 19:00 5,1 C 0,0 C 0,0 C 90 % 1027,5 hPa 0,0 l/m 5,1 km/h (1 Bft) NW 315 0 min 0,000 mm 0 W/m 3,6 C 4,2 C 5,1 km/h (1 Bft) 0,00 %
09.01.2012 19:05 5,1 C 0,0 C 0,0 C 90 % 1027,5 hPa 0,0 l/m 5,4 km/h (1 Bft) W 265 0 min 0,000 mm 0 W/m 3,6 C 4,0 C 5,4 km/h (1 Bft) 0,00 %
09.01.2012 19:10 5,1 C 0,0 C 0,0 C 90 % 1027,5 hPa 0,0 l/m 3,6 km/h (1 Bft) W 280 0 min 0,000 mm 0 W/m 3,6 C 5,1 C 3,6 km/h (1 Bft) 0,00 %
09.01.2012 19:15 5,1 C 0,0 C 0,0 C 90 % 1027,5 hPa 0,0 l/m 4,8 km/h (1 Bft) W 270 0 min 0,000 mm 0 W/m 3,6 C 4,3 C 4,8 km/h (1 Bft) 0,00 %
09.01.2012 19:20 5,1 C 0,0 C 0,0 C 90 % 1027,5 hPa 0,0 l/m 4,8 km/h (1 Bft) NW 315 0 min 0,000 mm 0 W/m 3,6 C 4,3 C 4,8 km/h (1 Bft) 0,00 %
09.01.2012 19:25 5,1 C 0,0 C 0,0 C 90 % 1027,5 hPa 0,0 l/m 4,2 km/h (1 Bft) NW 310 0 min 0,000 mm 0 W/m 3,6 C 5,1 C 4,2 km/h (1 Bft) 0,00 %
09.01.2012 19:30 5,1 C 0,0 C 0,0 C 90 % 1027,5 hPa 0,0 l/m 7,9 km/h (2 Bft) W 275 0 min 0,000 mm 0 W/m 3,6 C 3,3 C 7,9 km/h (2 Bft) 0,00 %
09.01.2012 19:35 5,1 C 0,0 C 0,0 C 90 % 1027,5 hPa 0,0 l/m 6,7 km/h (2 Bft) N 0 0 min 0,000 mm 0 W/m 3,6 C 3,6 C 6,7 km/h (2 Bft) 0,00 %
09.01.2012 19:40 5,1 C 0,0 C 0,0 C 90 % 1027,5 hPa 0,0 l/m 6,4 km/h (2 Bft) W-SW 255 0 min 0,000 mm 0 W/m 3,6 C 3,7 C 6,4 km/h (2 Bft) 0,00 %
09.01.2012 19:45 5,1 C 0,0 C 0,0 C 90 % 1027,5 hPa 0,0 l/m 7,9 km/h (2 Bft) NW 310 0 min 0,000 mm 0 W/m 3,6 C 3,3 C 7,9 km/h (2 Bft) 0,00 %
09.01.2012 19:50 5,2 C 0,0 C 0,0 C 89 % 1027,5 hPa 0,0 l/m 7,9 km/h (2 Bft) W-SW 245 0 min 0,000 mm 0 W/m 3,5 C 3,4 C 7,9 km/h (2 Bft) 0,00 %
09.01.2012 19:55 5,1 C 0,0 C 0,0 C 90 % 1028,5 hPa 0,0 l/m 6,4 km/h (2 Bft) NW 305 0 min 0,000 mm 0 W/m 3,6 C 3,7 C 6,4 km/h (2 Bft) 0,00 %
09.01.2012 20:00 5,1 C 0,0 C 0,0 C 90 % 1028,5 hPa 0,0 l/m 0,0 km/h (0 Bft) W 280 0 min 0,000 mm 0 W/m 3,6 C 5,1 C 0,0 km/h (0 Bft) 0,00 %
09.01.2012 20:05 5,1 C 0,0 C 0,0 C 89 % 1028,5 hPa 0,0 l/m 0,0 km/h (0 Bft) N-NW 340 0 min 0,000 mm 0 W/m 3,4 C 5,1 C 0,0 km/h (0 Bft) 0,00 %
09.01.2012 20:10 5,1 C 0,0 C 0,0 C 89 % 1027,5 hPa 0,0 l/m 0,0 km/h (0 Bft) N 355 0 min 0,000 mm 0 W/m 3,4 C 5,1 C 0,0 km/h (0 Bft) 0,00 %
09.01.2012 20:15 5,1 C 0,0 C 0,0 C 89 % 1027,5 hPa 0,0 l/m 0,0 km/h (0 Bft) NW 305 0 min 0,000 mm 0 W/m 3,4 C 5,1 C 0,0 km/h (0 Bft) 0,00 %
09.01.2012 20:20 5,2 C 0,0 C 0,0 C 89 % 1027,5 hPa 0,0 l/m 5,1 km/h (1 Bft) S-SO 150 0 min 0,000 mm 0 W/m 3,5 C 4,3 C 5,1 km/h (1 Bft) 0,00 %
09.01.2012 20:25 5,2 C 0,0 C 0,0 C 89 % 1027,5 hPa 0,0 l/m 2,7 km/h (1 Bft) W-NW 295 0 min 0,000 mm 0 W/m 3,5 C 5,2 C 2,7 km/h (1 Bft) 0,00 %
09.01.2012 20:30 5,2 C 0,0 C 0,0 C 89 % 1027,5 hPa 0,0 l/m 3,0 km/h (1 Bft) W-NW 300 0 min 0,000 mm 0 W/m 3,5 C 5,2 C 3,0 km/h (1 Bft) 0,00 %
09.01.2012 20:35 5,2 C 0,0 C 0,0 C 89 % 1027,5 hPa 0,0 l/m 0,3 km/h (0 Bft) W-SW 245 0 min 0,000 mm 0 W/m 3,5 C 5,2 C 0,3 km/h (0 Bft) 0,00 %
09.01.2012 20:40 5,1 C 0,0 C 0,0 C 89 % 1027,5 hPa 0,0 l/m 3,0 km/h (1 Bft) W 270 0 min 0,000 mm 0 W/m 3,4 C 5,1 C 3,0 km/h (1 Bft) 0,00 %
09.01.2012 20:45 5,2 C 0,0 C 0,0 C 89 % 1027,5 hPa 0,0 l/m 0,9 km/h (0 Bft) N 355 0 min 0,000 mm 0 W/m 3,5 C 5,2 C 0,9 km/h (0 Bft) 0,00 %
09.01.2012 20:50 5,1 C 0,0 C 0,0 C 89 % 1027,5 hPa 0,0 l/m 0,9 km/h (0 Bft) W-NW 290 0 min 0,000 mm 0 W/m 3,4 C 5,1 C 0,9 km/h (0 Bft) 0,00 %
09.01.2012 20:55 5,2 C 0,0 C 0,0 C 89 % 1027,5 hPa 0,0 l/m 2,7 km/h (1 Bft) W 280 0 min 0,000 mm 0 W/m 3,5 C 5,2 C 2,7 km/h (1 Bft) 0,00 %
09.01.2012 21:00 5,2 C 0,0 C 0,0 C 89 % 1027,5 hPa 0,0 l/m 1,5 km/h (1 Bft) NW 320 0 min 0,000 mm 0 W/m 3,5 C 5,2 C 1,5 km/h (1 Bft) 0,00 %
09.01.2012 21:05 5,1 C 0,0 C 0,0 C 89 % 1027,5 hPa 0,0 l/m 0,0 km/h (0 Bft) W-SW 255 0 min 0,000 mm 0 W/m 3,4 C 5,1 C 0,0 km/h (0 Bft) 0,00 %
09.01.2012 21:10 5,2 C 0,0 C 0,0 C 89 % 1027,5 hPa 0,0 l/m 3,6 km/h (1 Bft) W 270 0 min 0,000 mm 0 W/m 3,5 C 5,2 C 3,6 km/h (1 Bft) 0,00 %
09.01.2012 21:15 5,2 C 0,0 C 0,0 C 89 % 1027,5 hPa 0,0 l/m 5,1 km/h (1 Bft) W-SW 250 0 min 0,000 mm 0 W/m 3,5 C 4,3 C 5,1 km/h (1 Bft) 0,00 %
09.01.2012 21:20 5,2 C 0,0 C 0,0 C 89 % 1027,5 hPa 0,0 l/m 5,1 km/h (1 Bft) SW 215 0 min 0,000 mm 0 W/m 3,5 C 4,3 C 5,1 km/h (1 Bft) 0,00 %
09.01.2012 21:25 5,2 C 0,0 C 0,0 C 89 % 1027,5 hPa 0,0 l/m 3,3 km/h (1 Bft) N 10 0 min 0,000 mm 0 W/m 3,5 C 5,2 C 3,3 km/h (1 Bft) 0,00 %
09.01.2012 21:30 5,2 C 0,0 C 0,0 C 89 % 1027,5 hPa 0,0 l/m 8,5 km/h (2 Bft) S-SO 165 0 min 0,000 mm 0 W/m 3,5 C 3,2 C 8,5 km/h (2 Bft) 0,00 %
09.01.2012 21:35 5,2 C 0,0 C 0,0 C 89 % 1027,5 hPa 0,0 l/m 3,9 km/h (1 Bft) W-SW 245 0 min 0,000 mm 0 W/m 3,5 C 5,2 C 3,9 km/h (1 Bft) 0,00 %
09.01.2012 21:40 5,2 C 0,0 C 0,0 C 89 % 1028,5 hPa 0,0 l/m 3,3 km/h (1 Bft) S-SW 195 0 min 0,000 mm 0 W/m 3,5 C 5,2 C 3,3 km/h (1 Bft) 0,00 %
09.01.2012 21:45 5,3 C 0,0 C 0,0 C 90 % 1028,5 hPa 0,0 l/m 1,2 km/h (1 Bft) S 190 0 min 0,000 mm 0 W/m 3,8 C 5,3 C 1,2 km/h (1 Bft) 0,00 %
09.01.2012 21:50 5,2 C 0,0 C 0,0 C 89 % 1028,5 hPa 0,0 l/m 0,9 km/h (0 Bft) S 170 0 min 0,000 mm 0 W/m 3,5 C 5,2 C 0,9 km/h (0 Bft) 0,00 %
09.01.2012 21:55 5,1 C 0,0 C 0,0 C 89 % 1027,5 hPa 0,0 l/m 0,0 km/h (0 Bft) W 260 0 min 0,000 mm 0 W/m 3,4 C 5,1 C 0,0 km/h (0 Bft) 0,00 %
09.01.2012 22:00 5,2 C 0,0 C 0,0 C 89 % 1027,5 hPa 0,0 l/m 0,0 km/h (0 Bft) W 275 0 min 0,000 mm 0 W/m 3,5 C 5,2 C 0,0 km/h (0 Bft) 0,00 %
09.01.2012 22:05 5,2 C 0,0 C 0,0 C 89 % 1027,5 hPa 0,0 l/m 1,2 km/h (1 Bft) NW 305 0 min 0,000 mm 0 W/m 3,5 C 5,2 C 1,2 km/h (1 Bft) 0,00 %
09.01.2012 22:10 5,2 C 0,0 C 0,0 C 89 % 1028,5 hPa 0,0 l/m 0,6 km/h (0 Bft) N-NW 335 0 min 0,000 mm 0 W/m 3,5 C 5,2 C 0,6 km/h (0 Bft) 0,00 %
09.01.2012 22:15 5,2 C 0,0 C 0,0 C 89 % 1028,5 hPa 0,0 l/m 4,2 km/h (1 Bft) S 185 0 min 0,000 mm 0 W/m 3,5 C 5,2 C 4,2 km/h (1 Bft) 0,00 %
09.01.2012 22:20 5,2 C 0,0 C 0,0 C 89 % 1028,5 hPa 0,0 l/m 2,1 km/h (1 Bft) S 175 0 min 0,000 mm 0 W/m 3,5 C 5,2 C 2,1 km/h (1 Bft) 0,00 %
09.01.2012 22:25 5,2 C 0,0 C 0,0 C 89 % 1027,5 hPa 0,0 l/m 0,6 km/h (0 Bft) W-NW 300 0 min 0,000 mm 0 W/m 3,5 C 5,2 C 0,6 km/h (0 Bft) 0,00 %
09.01.2012 22:30 5,2 C 0,0 C 0,0 C 89 % 1027,5 hPa 0,0 l/m 0,6 km/h (0 Bft) S-SO 165 0 min 0,000 mm 0 W/m 3,5 C 5,2 C 0,6 km/h (0 Bft) 0,00 %
09.01.2012 22:35 5,2 C 0,0 C 0,0 C 89 % 1027,5 hPa 0,0 l/m 0,9 km/h (0 Bft) S 185 0 min 0,000 mm 0 W/m 3,5 C 5,2 C 0,9 km/h (0 Bft) 0,00 %
09.01.2012 22:40 5,2 C 0,0 C 0,0 C 89 % 1028,5 hPa 0,0 l/m 3,6 km/h (1 Bft) W-SW 255 0 min 0,000 mm 0 W/m 3,5 C 5,2 C 3,6 km/h (1 Bft) 0,00 %
09.01.2012 22:45 5,2 C 0,0 C 0,0 C 89 % 1028,5 hPa 0,0 l/m 2,4 km/h (1 Bft) S 180 0 min 0,000 mm 0 W/m 3,5 C 5,2 C 2,4 km/h (1 Bft) 0,00 %
09.01.2012 22:50 5,2 C 0,0 C 0,0 C 89 % 1028,5 hPa 0,0 l/m 1,5 km/h (1 Bft) SW 215 0 min 0,000 mm 0 W/m 3,5 C 5,2 C 1,5 km/h (1 Bft) 0,00 %
09.01.2012 22:55 5,2 C 0,0 C 0,0 C 89 % 1028,5 hPa 0,0 l/m 0,0 km/h (0 Bft) SW 235 0 min 0,000 mm 0 W/m 3,5 C 5,2 C 0,0 km/h (0 Bft) 0,00 %
09.01.2012 23:00 5,2 C 0,0 C 0,0 C 89 % 1028,5 hPa 0,0 l/m 0,0 km/h (0 Bft) S-SW 205 0 min 0,000 mm 0 W/m 3,5 C 5,2 C 0,0 km/h (0 Bft) 0,00 %
09.01.2012 23:05 5,2 C 0,0 C 0,0 C 89 % 1028,5 hPa 0,0 l/m 1,5 km/h (1 Bft) S 190 0 min 0,000 mm 0 W/m 3,5 C 5,2 C 1,5 km/h (1 Bft) 0,00 %
09.01.2012 23:10 5,3 C 0,0 C 0,0 C 90 % 1028,5 hPa 0,0 l/m 2,4 km/h (1 Bft) SW 230 0 min 0,000 mm 0 W/m 3,8 C 5,3 C 2,4 km/h (1 Bft) 0,00 %
09.01.2012 23:15 5,3 C 0,0 C 0,0 C 90 % 1028,5 hPa 0,3 l/m 0,0 km/h (0 Bft) S-SW 200 0 min 0,000 mm 0 W/m 3,8 C 5,3 C 0,0 km/h (0 Bft) 0,00 %
09.01.2012 23:20 5,3 C 0,0 C 0,0 C 90 % 1028,5 hPa 0,0 l/m 0,0 km/h (0 Bft) S-SO 150 0 min 0,000 mm 0 W/m 3,8 C 5,3 C 0,0 km/h (0 Bft) 0,00 %
09.01.2012 23:25 5,3 C 0,0 C 0,0 C 90 % 1028,5 hPa 0,0 l/m 1,2 km/h (1 Bft) S-SW 200 0 min 0,000 mm 0 W/m 3,8 C 5,3 C 1,2 km/h (1 Bft) 0,00 %
09.01.2012 23:30 5,4 C 0,0 C 0,0 C 90 % 1028,5 hPa 0,0 l/m 4,5 km/h (1 Bft) S-SW 195 0 min 0,000 mm 0 W/m 3,9 C 5,4 C 4,5 km/h (1 Bft) 0,00 %
09.01.2012 23:35 5,4 C 0,0 C 0,0 C 90 % 1028,5 hPa 0,0 l/m 0,6 km/h (0 Bft) S 185 0 min 0,000 mm 0 W/m 3,9 C 5,4 C 0,6 km/h (0 Bft) 0,00 %
09.01.2012 23:40 5,4 C 0,0 C 0,0 C 90 % 1027,5 hPa 0,0 l/m 2,1 km/h (1 Bft) S-SO 155 0 min 0,000 mm 0 W/m 3,9 C 5,4 C 2,1 km/h (1 Bft) 0,00 %
09.01.2012 23:45 5,5 C 0,0 C 0,0 C 90 % 1027,5 hPa 0,0 l/m 1,2 km/h (1 Bft) S-SO 165 0 min 0,000 mm 0 W/m 4,0 C 5,5 C 1,2 km/h (1 Bft) 0,00 %
09.01.2012 23:50 5,5 C 0,0 C 0,0 C 90 % 1027,5 hPa 0,0 l/m 0,0 km/h (0 Bft) O-SO 110 0 min 0,000 mm 0 W/m 4,0 C 5,5 C 0,0 km/h (0 Bft) 0,00 %
09.01.2012 23:55 5,5 C 0,0 C 0,0 C 90 % 1028,5 hPa 0,0 l/m 0,0 km/h (0 Bft) S-SW 195 0 min 0,000 mm 0 W/m 4,0 C 5,5 C 0,0 km/h (0 Bft) 0,00 %
_ Min-Zeit 05:05 00:00 00:00 00:50 00:00 - 00:00 - - - - - 05:05 11:50 00:00 00:00
Minimum _ 2,2 C 0,0 C 0,0 C 86 % 1024,5 hPa - 0,0 km/h (0 Bft) - - - - - 0,4 C -0,3 C 0,0 km/h (0 Bft) 0,00 %
_ Max-Zeit 23:45 00:00 00:00 12:10 19:55 00:25 11:50 - - 00:00 00:00 00:00 23:45 23:45 11:50 00:00
Maximum _ 5,5 C 0,0 C 0,0 C 90 % 1028,5 hPa 0,3 l/m 17,2 km/h
W (3 Bft)
- - 0 min 0,000 mm 0 W/m 4,0 C 5,5 C 17,2 km/h
W (3 Bft)
0,00 %
Durchschnitt _ 3,8 C 0,0 C 0,0 C 89 % 1026,3 hPa #2,7 l/m 5,5 km/h (1 Bft) W - #0 min. #0,000 mm 0 W/m 2,2 C 2,7 C 5,5 km/h (1 Bft) 0,00 %
Wetterstation Gdesweiler